Flag for Australia Weather past 2 weeks in Dubbo, New South Wales, Australia

Now
68 °F

Sunny.


Feels Like: 68 °F
Forecast: 45 / 71 °F
Wind: 8 mph from Northeast

Location: Dubbo Airport

Current Time: Sep 21, 2014 at 12:37:02 PM

Latest Report: Sep 21, 2014 at 12:00 PM


Visibility: N/A

Pressure: 30.36 "Hg

Humidity: 43%

Dew point: 45 °F

Location of DubboLocation

Historic Weather in Dubbo — Graph

°F

Dubbo temperature yesterday

Maximum temperature yesterday: 70 °F (at 1:30 PM)
Minimum temperature yesterday: 32 °F (at 4:00 AM)
Average temperature yesterday: 52 °F

Past Weeks' High & Low Weather Summary

 TemperatureHumidityPressure
High77 °F (Sep 15, 3:00 PM)100% (Sep 7, 5:30 AM)30.39 "Hg (Sep 7, 5:30 AM)
Low32 °F (Sep 20, 4:00 AM)17% (Sep 20, 1:30 PM)29.71 "Hg (Sep 10, 12:00 AM)
Average56 °F63%30.11 "Hg
* Reported Sep 6 11:00 AM — Sep 21 11:00 AM, Dubbo, Weather by CustomWeather, © 2014

Note: Actual official high and low records may vary slightly from our data, if they occured in-between our weather recording intervals... More about our weather records

Advertising

Dubbo weather history for previous 24 hours

 ConditionsComfort  
Time TempWeatherWind HumidityBarometerVisibility
11:00 AM
Sep 21
66 °FSunny.10 mph46%30.36 "HgN/A
10:30 AM64 °FSunny.12 mph49%30.36 "HgN/A
10:00 AM63 °FSunny.13 mph56%30.39 "HgN/A
9:30 AM61 °FSunny.16 mph59%30.39 "HgN/A
9:00 AM61 °FSunny.16 mph59%30.36 "HgN/A
8:00 AM54 °FSunny.6 mph77%30.36 "HgN/A
7:30 AM52 °FSunny.6 mph77%30.36 "HgN/A
7:00 AM48 °FSunny.7 mph82%30.36 "HgN/A
6:00 AM45 °FSunny.12 mph87%30.33 "HgN/A
5:30 AM43 °FSunny.10 mph93%30.30 "HgN/A
5:00 AM45 °FSunny.13 mph87%30.30 "HgN/A
4:30 AM43 °FClear.10 mph93%30.30 "HgN/A
4:00 AM45 °FClear.13 mph87%30.27 "HgN/A
11:00 PM
Sep 20
48 °FClear.9 mph66%30.27 "HgN/A
10:30 PM46 °FClear.6 mph66%30.27 "HgN/A
10:00 PM50 °FClear.10 mph62%30.27 "HgN/A
9:30 PM54 °FClear.10 mph58%30.24 "HgN/A
9:00 PM52 °FClear.9 mph58%30.24 "HgN/A
8:00 PM55 °FClear.9 mph51%30.24 "HgN/A
7:30 PM55 °FClear.9 mph55%30.21 "HgN/A
7:00 PM57 °FClear.8 mph51%30.21 "HgN/A
6:30 PM57 °FClear.8 mph48%30.21 "HgN/A
6:00 PM61 °FClear.5 mph36%30.18 "HgN/A
5:30 PM66 °FClear.5 mph28%30.18 "HgN/A
5:00 PM68 °FClear.7 mph24%30.18 "HgN/A
4:30 PM70 °FSunny.12 mph23%30.15 "HgN/A
4:00 PM70 °FSunny.12 mph21%30.15 "HgN/A
3:30 PM70 °FSunny.8 mph18%30.15 "HgN/A
3:00 PM70 °FSunny.8 mph20%30.15 "HgN/A
2:30 PM70 °FSunny.10 mph20%30.15 "HgN/A
2:00 PM70 °FSunny.6 mph18%30.15 "HgN/A
1:30 PM70 °FSunny.5 mph17%30.18 "HgN/A
1:00 PM68 °FSunny.8 mph21%30.18 "HgN/A
12:30 PM66 °FSunny.6 mph24%30.18 "HgN/A
12:00 PM64 °FSunny.3 mph24%30.21 "HgN/A
Weather by CustomWeather, © 2014

See weather overviewHow to use our weather pages